Time,TemperatureF,DewpointF,PressureIn,WindDirection,WindDirectionDegrees,WindSpeedMPH,WindSpeedGustMPH,Humidity,HourlyPrecipIn,Conditions,Clouds,dailyrainin,SoftwareType,DateUTC
2013-03-09 00:15:00,32.9,27.1,30.53,South,180,1.6,-999.0,79,-99.99,,,0.00,Acu-Link.com,2013-03-09 05:15:00,
2013-03-09 00:30:00,32.4,27.2,30.53,South,180,1.1,-999.0,81,-99.99,,,0.00,Acu-Link.com,2013-03-09 05:30:00,
2013-03-09 00:45:00,32.2,27.0,30.54,ENE,67,1.6,-999.0,81,-99.99,,,0.00,Acu-Link.com,2013-03-09 05:45:00,
2013-03-09 01:00:00,32.7,27.2,30.54,SSE,157,3.1,-999.0,80,-99.99,,,0.00,Acu-Link.com,2013-03-09 06:00:00,
2013-03-09 01:15:00,32.5,27.1,30.53,West,270,1.6,-999.0,80,-99.99,,,0.00,Acu-Link.com,2013-03-09 06:15:00,
2013-03-09 01:31:00,32.0,26.5,30.53,NNE,22,3.1,-999.0,80,-99.99,,,0.00,Acu-Link.com,2013-03-09 06:31:00,
2013-03-09 01:46:00,31.8,26.4,30.54,SE,135,1.6,-999.0,80,-99.99,,,0.00,Acu-Link.com,2013-03-09 06:46:00,
2013-03-09 02:01:00,31.5,26.3,30.53,NW,315,2.7,-999.0,81,-99.99,,,0.00,Acu-Link.com,2013-03-09 07:01:00,
2013-03-09 02:16:00,31.5,26.3,30.53,WNW,292,4.3,-999.0,81,-99.99,,,0.00,Acu-Link.com,2013-03-09 07:16:00,
2013-03-09 02:31:00,32.4,26.6,30.53,East,90,3.8,-999.0,79,-99.99,,,0.00,Acu-Link.com,2013-03-09 07:31:00,
2013-03-09 02:47:00,31.3,26.4,30.52,NW,315,3.8,-999.0,82,-99.99,,,0.00,Acu-Link.com,2013-03-09 07:47:00,
2013-03-09 03:02:00,30.2,25.4,30.52,West,270,0.0,-999.0,82,-99.99,,,0.00,Acu-Link.com,2013-03-09 08:02:00,
2013-03-09 03:17:00,29.5,25.3,30.53,SSW,202,1.1,-999.0,84,-99.99,,,0.00,Acu-Link.com,2013-03-09 08:17:00,
2013-03-09 03:32:00,28.9,25.3,30.53,WNW,292,0.0,-999.0,86,-99.99,,,0.00,Acu-Link.com,2013-03-09 08:32:00,
2013-03-09 03:47:00,28.0,25.0,30.52,SW,225,0.0,-999.0,88,-99.99,,,0.00,Acu-Link.com,2013-03-09 08:47:00,
2013-03-09 04:03:00,26.6,24.1,30.53,WNW,292,2.2,-999.0,90,-99.99,,,0.00,Acu-Link.com,2013-03-09 09:03:00,
2013-03-09 04:18:00,26.6,24.1,30.53,WSW,247,2.2,-999.0,90,-99.99,,,0.00,Acu-Link.com,2013-03-09 09:18:00,
2013-03-09 04:33:00,28.6,24.9,30.54,WNW,292,4.7,-999.0,86,-99.99,,,0.00,Acu-Link.com,2013-03-09 09:33:00,
2013-03-09 04:48:00,28.0,24.7,30.54,WSW,247,3.8,-999.0,87,-99.99,,,0.00,Acu-Link.com,2013-03-09 09:48:00,
2013-03-09 05:04:00,28.2,24.6,30.55,East,90,1.6,-999.0,86,-99.99,,,0.00,Acu-Link.com,2013-03-09 10:04:00,
2013-03-09 05:19:00,26.6,23.8,30.56,NW,315,0.0,-999.0,89,-99.99,,,0.00,Acu-Link.com,2013-03-09 10:19:00,
2013-03-09 05:34:00,26.4,23.6,30.57,NNE,22,2.2,-999.0,89,-99.99,,,0.00,Acu-Link.com,2013-03-09 10:34:00,
2013-03-09 05:49:00,26.2,23.2,30.57,SW,225,0.0,-999.0,88,-99.99,,,0.00,Acu-Link.com,2013-03-09 10:49:00,
2013-03-09 06:04:00,26.1,23.0,30.57,West,270,4.7,-999.0,88,-99.99,,,0.00,Acu-Link.com,2013-03-09 11:04:00,
2013-03-09 06:19:00,25.5,22.7,30.57,West,270,1.6,-999.0,89,-99.99,,,0.00,Acu-Link.com,2013-03-09 11:19:00,
2013-03-09 06:35:00,25.3,22.8,30.58,WNW,292,0.0,-999.0,90,-99.99,,,0.00,Acu-Link.com,2013-03-09 11:35:00,
2013-03-09 06:50:00,26.2,23.2,30.58,NW,315,3.1,-999.0,88,-99.99,,,0.00,Acu-Link.com,2013-03-09 11:50:00,
2013-03-09 07:05:00,28.0,23.8,30.59,West,270,0.0,-999.0,84,-99.99,,,0.00,Acu-Link.com,2013-03-09 12:05:00,
2013-03-09 07:20:00,29.8,24.7,30.59,SW,225,1.6,-999.0,81,-99.99,,,0.00,Acu-Link.com,2013-03-09 12:20:00,
2013-03-09 07:35:00,31.6,25.0,30.59,WNW,292,5.1,-999.0,76,-99.99,,,0.00,Acu-Link.com,2013-03-09 12:35:00,
2013-03-09 07:51:00,33.3,25.2,30.59,WNW,292,4.7,-999.0,72,-99.99,,,0.00,Acu-Link.com,2013-03-09 12:51:00,
2013-03-09 08:06:00,36.5,27.0,30.59,SSW,202,4.7,-999.0,68,-99.99,,,0.00,Acu-Link.com,2013-03-09 13:06:00,
2013-03-09 08:21:00,38.3,27.2,30.59,West,270,2.2,-999.0,64,-99.99,,,0.00,Acu-Link.com,2013-03-09 13:21:00,
2013-03-09 08:36:00,39.6,27.2,30.59,WNW,292,3.8,-999.0,61,-99.99,,,0.00,Acu-Link.com,2013-03-09 13:36:00,
2013-03-09 08:51:00,41.5,27.5,30.60,East,90,4.7,-999.0,57,-99.99,,,0.00,Acu-Link.com,2013-03-09 13:51:00,
2013-03-09 09:07:00,43.2,27.7,30.60,WNW,292,6.7,-999.0,54,-99.99,,,0.00,Acu-Link.com,2013-03-09 14:07:00,
2013-03-09 09:22:00,45.9,28.3,30.60,WNW,292,5.8,-999.0,50,-99.99,,,0.00,Acu-Link.com,2013-03-09 14:22:00,
2013-03-09 09:37:00,46.6,27.4,30.60,ENE,67,6.3,-999.0,47,-99.99,,,0.00,Acu-Link.com,2013-03-09 14:37:00,
2013-03-09 09:52:00,47.7,27.4,30.60,ENE,67,7.4,-999.0,45,-99.99,,,0.01,Acu-Link.com,2013-03-09 14:52:00,
2013-03-09 10:08:00,48.4,28.6,30.60,East,90,7.8,-999.0,46,-99.99,,,0.02,Acu-Link.com,2013-03-09 15:08:00,
2013-03-09 10:23:00,48.7,26.7,30.60,ENE,67,4.7,-999.0,42,-99.99,,,0.06,Acu-Link.com,2013-03-09 15:23:00,
2013-03-09 10:38:00,49.6,25.7,30.60,West,270,4.3,-999.0,39,-99.99,,,0.08,Acu-Link.com,2013-03-09 15:38:00,
2013-03-09 10:53:00,51.6,26.9,30.60,NNW,337,3.1,-999.0,38,-99.99,,,0.09,Acu-Link.com,2013-03-09 15:53:00,
2013-03-09 11:08:00,53.8,26.8,30.60,WNW,292,5.8,-999.0,35,-99.99,,,0.13,Acu-Link.com,2013-03-09 16:08:00,
2013-03-09 11:24:00,51.8,27.0,30.60,West,270,2.7,-999.0,38,-99.99,,,0.17,Acu-Link.com,2013-03-09 16:24:00,
2013-03-09 11:39:00,53.8,28.8,30.60,NNW,337,8.9,-999.0,38,-99.99,,,0.18,Acu-Link.com,2013-03-09 16:39:00,
2013-03-09 11:54:00,53.4,30.9,30.59,NW,315,7.4,-999.0,42,-99.99,,,0.19,Acu-Link.com,2013-03-09 16:54:00,
2013-03-09 12:09:00,55.2,31.3,30.59,WNW,292,8.9,-999.0,40,-99.99,,,0.19,Acu-Link.com,2013-03-09 17:09:00,
2013-03-09 12:24:00,53.6,30.5,30.59,West,270,4.7,-999.0,41,-99.99,,,0.20,Acu-Link.com,2013-03-09 17:24:00,
2013-03-09 12:40:00,55.0,30.5,30.58,WNW,292,3.1,-999.0,39,-99.99,,,0.20,Acu-Link.com,2013-03-09 17:40:00,
2013-03-09 12:55:00,56.3,30.4,30.57,WNW,292,7.4,-999.0,37,-99.99,,,0.20,Acu-Link.com,2013-03-09 17:55:00,
2013-03-09 13:10:00,56.3,30.4,30.57,NW,315,5.8,-999.0,37,-99.99,,,0.20,Acu-Link.com,2013-03-09 18:10:00,
2013-03-09 13:25:00,57.7,30.3,30.57,WNW,292,5.8,-999.0,35,-99.99,,,0.20,Acu-Link.com,2013-03-09 18:25:00,
2013-03-09 13:40:00,57.6,31.5,30.56,WNW,292,4.3,-999.0,37,-99.99,,,0.20,Acu-Link.com,2013-03-09 18:40:00,
2013-03-09 13:56:00,57.4,31.3,30.56,East,90,3.8,-999.0,37,-99.99,,,0.20,Acu-Link.com,2013-03-09 18:56:00,
2013-03-09 14:11:00,59.0,19.1,30.56,NE,45,3.8,-999.0,21,-99.99,,,0.20,Acu-Link.com,2013-03-09 19:11:00,
2013-03-09 14:26:00,58.3,7.7,30.55,ENE,67,4.3,-999.0,13,-99.99,,,0.20,Acu-Link.com,2013-03-09 19:26:00,
2013-03-09 14:41:00,58.3,-8.7,30.55,NE,45,3.8,-999.0,6,-99.99,,,0.20,Acu-Link.com,2013-03-09 19:41:00,
2013-03-09 14:57:00,58.1,-8.8,30.55,ENE,67,3.8,-999.0,6,-99.99,,,0.20,Acu-Link.com,2013-03-09 19:57:00,
2013-03-09 15:12:00,57.9,-8.9,30.56,ESE,112,4.3,-999.0,6,-99.99,,,0.20,Acu-Link.com,2013-03-09 20:12:00,
2013-03-09 15:27:00,57.2,-13.1,30.57,East,90,5.8,-999.0,5,-99.99,,,0.20,Acu-Link.com,2013-03-09 20:27:00,
2013-03-09 15:42:00,57.2,-13.1,30.58,NNE,22,2.7,-999.0,5,-99.99,,,0.20,Acu-Link.com,2013-03-09 20:42:00,
2013-03-09 15:57:00,56.1,6.0,30.58,NNE,22,2.2,-999.0,13,-99.99,,,0.20,Acu-Link.com,2013-03-09 20:57:00,
2013-03-09 16:13:00,56.1,15.6,30.59,NW,315,0.0,-999.0,20,-99.99,,,0.20,Acu-Link.com,2013-03-09 21:13:00,
2013-03-09 16:28:00,56.1,15.6,30.58,West,270,3.8,-999.0,20,-99.99,,,0.20,Acu-Link.com,2013-03-09 21:28:00,
2013-03-09 16:43:00,55.6,12.8,30.59,East,90,3.8,-999.0,18,-99.99,,,0.20,Acu-Link.com,2013-03-09 21:43:00,
2013-03-09 16:58:00,54.7,31.5,30.59,West,270,4.7,-999.0,41,-99.99,,,0.20,Acu-Link.com,2013-03-09 21:58:00,
2013-03-09 17:13:00,52.9,32.1,30.59,WNW,292,3.8,-999.0,45,-99.99,,,0.20,Acu-Link.com,2013-03-09 22:13:00,
2013-03-09 17:28:00,50.4,33.4,30.60,WNW,292,3.1,-999.0,52,-99.99,,,0.20,Acu-Link.com,2013-03-09 22:28:00,
2013-03-09 17:44:00,46.8,33.2,30.61,WNW,292,2.2,-999.0,59,-99.99,,,0.20,Acu-Link.com,2013-03-09 22:44:00,
2013-03-09 17:59:00,43.0,34.2,30.61,West,270,1.1,-999.0,71,-99.99,,,0.20,Acu-Link.com,2013-03-09 22:59:00,
2013-03-09 18:14:00,39.9,32.7,30.61,WNW,292,0.0,-999.0,75,-99.99,,,0.20,Acu-Link.com,2013-03-09 23:14:00,
2013-03-09 18:29:00,37.9,32.9,30.62,NW,315,0.0,-999.0,82,-99.99,,,0.20,Acu-Link.com,2013-03-09 23:29:00,
2013-03-09 18:44:00,36.1,32.1,30.63,WNW,292,0.0,-999.0,85,-99.99,,,0.20,Acu-Link.com,2013-03-09 23:44:00,
2013-03-09 19:00:00,34.5,31.3,30.63,WNW,292,0.0,-999.0,88,-99.99,,,0.20,Acu-Link.com,2013-03-10 00:00:00,
2013-03-09 19:15:00,33.6,31.5,30.64,NW,315,0.0,-999.0,92,-99.99,,,0.20,Acu-Link.com,2013-03-10 00:15:00,
2013-03-09 19:30:00,33.6,31.8,30.64,NW,315,1.6,-999.0,93,-99.99,,,0.20,Acu-Link.com,2013-03-10 00:30:00,
2013-03-09 19:45:00,33.3,31.2,30.65,West,270,0.0,-999.0,92,-99.99,,,0.20,Acu-Link.com,2013-03-10 00:45:00,
2013-03-09 20:01:00,33.1,31.0,30.65,WNW,292,2.7,-999.0,92,-99.99,,,0.20,Acu-Link.com,2013-03-10 01:01:00,
2013-03-09 20:16:00,33.1,30.5,30.64,NNW,337,2.2,-999.0,90,-99.99,,,0.20,Acu-Link.com,2013-03-10 01:16:00,
2013-03-09 20:31:00,31.8,31.1,30.64,West,270,0.0,-999.0,97,-99.99,,,0.20,Acu-Link.com,2013-03-10 01:31:00,
2013-03-09 20:46:00,30.7,30.2,30.65,WNW,292,1.6,-999.0,98,-99.99,,,0.20,Acu-Link.com,2013-03-10 01:46:00,
2013-03-09 21:01:00,29.8,29.1,30.65,ENE,67,0.0,-999.0,97,-99.99,,,0.20,Acu-Link.com,2013-03-10 02:01:00,
2013-03-09 21:17:00,28.2,27.5,30.66,ESE,112,0.0,-999.0,97,-99.99,,,0.20,Acu-Link.com,2013-03-10 02:17:00,
2013-03-09 21:32:00,27.7,27.2,30.66,NW,315,0.0,-999.0,98,-99.99,,,0.20,Acu-Link.com,2013-03-10 02:32:00,
2013-03-09 21:47:00,27.3,26.8,30.66,WNW,292,0.0,-999.0,98,-99.99,,,0.20,Acu-Link.com,2013-03-10 02:47:00,
2013-03-09 22:02:00,27.1,26.7,30.65,NNW,337,0.0,-999.0,98,-99.99,,,0.20,Acu-Link.com,2013-03-10 03:02:00,
2013-03-09 22:17:00,26.4,25.9,30.67,WNW,292,2.7,-999.0,98,-99.99,,,0.20,Acu-Link.com,2013-03-10 03:17:00,
2013-03-09 22:33:00,26.1,25.6,30.67,East,90,0.0,-999.0,98,-99.99,,,0.20,Acu-Link.com,2013-03-10 03:33:00,
2013-03-09 22:48:00,25.5,25.0,30.68,NW,315,1.1,-999.0,98,-99.99,,,0.20,Acu-Link.com,2013-03-10 03:48:00,
2013-03-09 23:03:00,25.0,24.5,30.69,WNW,292,1.1,-999.0,98,-99.99,,,0.20,Acu-Link.com,2013-03-10 04:03:00,
2013-03-09 23:18:00,24.3,23.8,30.69,South,180,0.0,-999.0,98,-99.99,,,0.20,Acu-Link.com,2013-03-10 04:18:00,
2013-03-09 23:33:00,24.3,23.8,30.70,WNW,292,0.0,-999.0,98,-99.99,,,0.20,Acu-Link.com,2013-03-10 04:33:00,
2013-03-09 23:49:00,24.1,23.6,30.70,NNW,337,1.1,-999.0,98,-99.99,,,0.20,Acu-Link.com,2013-03-10 04:49:00,